This is the latest recevied weather packets stored in our database for station/object EA1EXV-11. If no packets are shown the sender has not sent any weather packets the latest 10 day(s).
| Time | Temp. | Humidity | Pressure | Rain* | Wind** | Luminosity | Snow |
|---|---|---|---|---|---|---|---|
| 1778167236 | 21.11° C | 49% | 1010.8 hPa | - | - | - | - |
| 1778166336 | 21.11° C | 48% | 1011 hPa | - | - | - | - |
| 1778165436 | 21.67° C | 46% | 1011.3 hPa | - | - | - | - |
| 1778164536 | 22.78° C | 45% | 1011.4 hPa | - | - | - | - |
| 1778163636 | 24.44° C | 43% | 1011.5 hPa | - | - | - | - |
| 1778162736 | 25.56° C | 44% | 1011.5 hPa | - | - | - | - |
| 1778161836 | 24.44° C | 46% | 1011.5 hPa | - | - | - | - |
| 1778160936 | 21.67° C | 49% | 1011.5 hPa | - | - | - | - |
| 1778160036 | 22.78° C | 47% | 1011.5 hPa | - | - | - | - |
| 1778159135 | 24.44° C | 46% | 1011.5 hPa | - | - | - | - |
| 1778158235 | 25° C | 46% | 1011.7 hPa | - | - | - | - |
| 1778157335 | 26.11° C | 47% | 1011.7 hPa | - | - | - | - |
| 1778156435 | 26.67° C | 49% | 1011.9 hPa | - | - | - | - |
| 1778155535 | 22.22° C | 54% | 1012.1 hPa | - | - | - | - |
| 1778154635 | 21.67° C | 54% | 1012 hPa | - | - | - | - |
| 1778153735 | 22.22° C | 55% | 1011.9 hPa | - | - | - | - |
| 1778152835 | 23.33° C | 56% | 1011.8 hPa | - | - | - | - |
| 1778151935 | 21.11° C | 59% | 1011.9 hPa | - | - | - | - |
| 1778151035 | 21.11° C | 61% | 1011.9 hPa | - | - | - | - |
| 1778150135 | 21.11° C | 62% | 1011.9 hPa | - | - | - | - |
| 1778149234 | 24.44° C | 65% | 1011.8 hPa | - | - | - | - |
| 1778148334 | 23.33° C | 70% | 1011.9 hPa | - | - | - | - |
| 1778147434 | 21.11° C | 75% | 1011.9 hPa | - | - | - | - |
| 1778146534 | 18.89° C | 79% | 1012.1 hPa | - | - | - | - |
| 1778145634 | 19.44° C | 81% | 1012.2 hPa | - | - | - | - |
* Rain since midnight (hover to see other rain measurements)
** Current wind speed in m/s (hover to see current wind gust speed)